,,PA_Meas_PMT16A,,PR_Meas_QMR101_102,,RH_Meas_QMH101,,SR_Meas_QMS101,,TA_Meas_QMH101,,GenWind,,GenWind,
time,status,PA,status,PR,status,RH,status,SR,status,TA,status,DirAvg,status,SpdAvg,
2015-01-24, 07:55:04,VALID,919.792,VALID,0,VALID,98.2735,VALID,85.9529,VALID,19.0788,VALID,57,VALID,0,
2015-01-24, 07:56:04,VALID,919.815,VALID,0,VALID,98.2811,VALID,88.2092,VALID,19.1388,VALID,57,VALID,0,
2015-01-24, 07:57:04,VALID,919.817,VALID,0,VALID,98.2735,VALID,90.0357,VALID,19.1178,VALID,57,VALID,0,
2015-01-24, 07:58:04,VALID,919.813,VALID,0,VALID,98.2811,VALID,91.7547,VALID,19.1178,VALID,57,VALID,0,
2015-01-24, 07:59:04,VALID,919.847,VALID,0,VALID,98.2811,VALID,93.3664,VALID,19.1359,VALID,57,VALID,0,
2015-01-24, 08:00:04,VALID,919.865,VALID,0,VALID,98.3192,VALID,94.978,VALID,19.1373,VALID,62,VALID,0,
2015-01-24, 08:01:04,VALID,919.9,VALID,0,VALID,98.3039,VALID,96.3747,VALID,19.1568,VALID,65,VALID,0,
2015-01-24, 08:02:04,VALID,919.92,VALID,0,VALID,98.3497,VALID,98.0938,VALID,19.0998,VALID,65,VALID,0,
2015-01-24, 08:03:04,VALID,919.892,VALID,0,VALID,98.3344,VALID,99.3831,VALID,19.0983,VALID,65,VALID,0,
2015-01-24, 08:04:04,VALID,919.931,VALID,0,VALID,98.2887,VALID,100.243,VALID,19.1373,VALID,65,VALID,0,
2015-01-24, 08:05:04,VALID,919.932,VALID,0,VALID,98.2735,VALID,100.672,VALID,19.1568,VALID,65,VALID,0,
2015-01-24, 08:06:04,VALID,919.982,VALID,0,VALID,98.2353,VALID,100.35,VALID,19.1568,VALID,57,VALID,0,
2015-01-24, 08:07:04,VALID,920.023,VALID,0,VALID,98.1591,VALID,99.5979,VALID,19.2543,VALID,58,VALID,0,
2015-01-24, 08:08:04,VALID,920.028,VALID,0,VALID,98.1286,VALID,98.5235,VALID,19.3128,VALID,60,VALID,0,
2015-01-24, 08:09:04,VALID,920.052,VALID,0,VALID,98.0905,VALID,97.2342,VALID,19.3323,VALID,60,VALID,0,
2015-01-24, 08:10:04,VALID,920.082,VALID,0,VALID,98.0676,VALID,95.7301,VALID,19.3143,VALID,60,VALID,0,
2015-01-24, 08:11:04,VALID,920.13,VALID,0,VALID,97.999,VALID,94.3333,VALID,19.3533,VALID,59,VALID,0,
2015-01-24, 08:12:04,VALID,920.151,VALID,0,VALID,97.9075,VALID,93.1515,VALID,19.3923,VALID,56,VALID,0,
2015-01-24, 08:13:04,VALID,920.172,VALID,0,VALID,97.8618,VALID,92.1845,VALID,19.4703,VALID,57,VALID,0,
2015-01-24, 08:14:04,VALID,920.191,VALID,0,VALID,97.8084,VALID,91.4324,VALID,19.5093,VALID,83,VALID,0,
2015-01-24, 08:15:04,VALID,920.204,VALID,0,VALID,97.7551,VALID,91.0027,VALID,19.5288,VALID,83,VALID,0,
2015-01-24, 08:16:04,VALID,920.209,VALID,0,VALID,97.6941,VALID,90.6803,VALID,19.5663,VALID,83,VALID,0,
2015-01-24, 08:17:04,VALID,920.236,VALID,0,VALID,97.656,VALID,90.6803,VALID,19.6458,VALID,83,VALID,0,
2015-01-24, 08:18:04,VALID,920.261,VALID,0,VALID,97.6407,VALID,90.5729,VALID,19.6653,VALID,125,VALID,0,
2015-01-24, 08:19:04,VALID,920.266,VALID,0,VALID,97.6026,VALID,90.358,VALID,19.6638,VALID,144,VALID,0,
2015-01-24, 08:20:04,VALID,920.285,VALID,0,VALID,97.5569,VALID,90.2506,VALID,19.6638,VALID,162,VALID,0,
2015-01-24, 08:21:04,VALID,920.273,VALID,0,VALID,97.5264,VALID,89.6059,VALID,19.6458,VALID,162,VALID,0,
2015-01-24, 08:22:04,VALID,920.264,VALID,0,VALID,97.473,VALID,90.1431,VALID,19.6458,VALID,162,VALID,0,
2015-01-24, 08:23:04,VALID,920.295,VALID,0,VALID,97.412,VALID,91.0027,VALID,19.6248,VALID,163,VALID,0,
2015-01-24, 08:24:04,VALID,920.296,VALID,0,VALID,97.3891,VALID,94.2259,VALID,19.6053,VALID,179,VALID,0,
2015-01-24, 08:25:04,VALID,920.318,VALID,0,VALID,97.351,VALID,97.3417,VALID,19.5873,VALID,179,VALID,0,
2015-01-24, 08:26:04,VALID,920.351,VALID,0,VALID,97.29,VALID,98.4161,VALID,19.5678,VALID,177,VALID,0,
2015-01-24, 08:27:04,VALID,920.383,VALID,0,VALID,97.2519,VALID,98.8459,VALID,19.5483,VALID,179,VALID,0,
2015-01-24, 08:28:04,VALID,920.382,VALID,0,VALID,97.2367,VALID,99.0607,VALID,19.5678,VALID,179,VALID,0,
2015-01-24, 08:29:04,VALID,920.383,VALID,0,VALID,97.2214,VALID,100.028,VALID,19.5663,VALID,179,VALID,0,
2015-01-24, 08:30:04,VALID,920.411,VALID,0,VALID,97.1681,VALID,101.317,VALID,19.6068,VALID,179,VALID,0,
2015-01-24, 08:31:04,VALID,920.426,VALID,0,VALID,97.1223,VALID,103.036,VALID,19.6068,VALID,179,VALID,0,
2015-01-24, 08:32:04,VALID,920.428,VALID,0,VALID,97.0994,VALID,104.863,VALID,19.6248,VALID,179,VALID,0,
2015-01-24, 08:33:04,VALID,920.478,VALID,0,VALID,97.0385,VALID,106.904,VALID,19.6848,VALID,179,VALID,0,
2015-01-24, 08:34:04,VALID,920.471,VALID,0,VALID,97.0308,VALID,109.375,VALID,19.7223,VALID,138,VALID,0,
2015-01-24, 08:35:04,VALID,920.513,VALID,0,VALID,96.9165,VALID,112.169,VALID,19.6833,VALID,138,VALID,0,
2015-01-24, 08:36:04,VALID,920.509,VALID,0,VALID,96.8174,VALID,115.284,VALID,19.6833,VALID,126,VALID,0,
2015-01-24, 08:37:04,VALID,920.524,VALID,0,VALID,96.5582,VALID,118.4,VALID,19.6248,VALID,128,VALID,0,
2015-01-24, 08:38:04,VALID,920.508,VALID,0,VALID,96.3981,VALID,121.194,VALID,19.6053,VALID,129,VALID,0,
2015-01-24, 08:39:04,VALID,920.522,VALID,0,VALID,96.3829,VALID,123.235,VALID,19.6248,VALID,133,VALID,0,
2015-01-24, 08:40:04,VALID,920.535,VALID,0,VALID,96.2151,VALID,125.276,VALID,19.6248,VALID,133,VALID,0,
2015-01-24, 08:41:04,VALID,920.541,VALID,0,VALID,96.0855,VALID,127.425,VALID,19.6638,VALID,133,VALID,0,
2015-01-24, 08:42:04,VALID,920.535,VALID,0,VALID,96.116,VALID,129.681,VALID,19.7418,VALID,133,VALID,0,
2015-01-24, 08:43:04,VALID,920.555,VALID,0,VALID,95.9102,VALID,131.508,VALID,19.7613,VALID,133,VALID,0,
2015-01-24, 08:44:04,VALID,920.563,VALID,0,VALID,95.7044,VALID,133.549,VALID,19.8198,VALID,133,VALID,0,
2015-01-24, 08:45:04,VALID,920.582,VALID,0,VALID,95.3461,VALID,135.591,VALID,19.8588,VALID,133,VALID,0,
2015-01-24, 08:46:04,VALID,920.589,VALID,0,VALID,95.0488,VALID,137.847,VALID,19.9368,VALID,133,VALID,0,
2015-01-24, 08:47:04,VALID,920.58,VALID,0,VALID,94.2712,VALID,140.103,VALID,19.9953,VALID,133,VALID,0,
2015-01-24, 08:48:04,VALID,920.601,VALID,0,VALID,93.2268,VALID,142.467,VALID,20.0733,VALID,133,VALID,0,
2015-01-24, 08:49:04,VALID,920.582,VALID,0,VALID,93.0362,VALID,144.938,VALID,20.1708,VALID,133,VALID,0,
2015-01-24, 08:50:04,VALID,920.614,VALID,0,VALID,93.0514,VALID,146.979,VALID,20.2293,VALID,133,VALID,0,
2015-01-24, 08:51:04,VALID,920.591,VALID,0,VALID,94.0577,VALID,148.806,VALID,20.3269,VALID,133,VALID,0,
2015-01-24, 08:52:04,VALID,920.603,VALID,0,VALID,94.1339,VALID,150.632,VALID,20.3074,VALID,133,VALID,0,
2015-01-24, 08:53:04,VALID,920.62,VALID,0,VALID,94.1644,VALID,153.104,VALID,20.2684,VALID,133,VALID,0,
2015-01-24, 08:54:04,VALID,920.623,VALID,0,VALID,94.9878,VALID,156.327,VALID,20.3074,VALID,133,VALID,0,
2015-01-24, 08:55:04,VALID,920.599,VALID,0,VALID,94.7743,VALID,159.98,VALID,20.2668,VALID,133,VALID,0,
2015-01-24, 08:56:04,VALID,920.64,VALID,0,VALID,94.3398,VALID,163.955,VALID,20.3464,VALID,133,VALID,0,
2015-01-24, 08:57:04,VALID,920.637,VALID,0,VALID,93.6537,VALID,168.36,VALID,20.3854,VALID,133,VALID,0,
2015-01-24, 08:58:04,VALID,920.638,VALID,0,VALID,93.1581,VALID,173.088,VALID,20.4244,VALID,133,VALID,0,
2015-01-24, 08:59:04,VALID,920.659,VALID,0,VALID,93.0362,VALID,177.493,VALID,20.4634,VALID,191,VALID,0,
2015-01-24, 09:00:04,VALID,920.691,VALID,0,VALID,92.9218,VALID,181.79,VALID,20.5399,VALID,193,VALID,0,
2015-01-24, 09:01:04,VALID,920.672,VALID,0,VALID,91.885,VALID,185.873,VALID,20.6194,VALID,193,VALID,0,
2015-01-24, 09:02:04,VALID,920.687,VALID,0,VALID,91.4048,VALID,188.882,VALID,20.6569,VALID,193,VALID,0,
2015-01-24, 09:03:04,VALID,920.69,VALID,0,VALID,91.237,VALID,191.782,VALID,20.7154,VALID,193,VALID,0,
2015-01-24, 09:04:04,VALID,920.711,VALID,0,VALID,90.5814,VALID,194.361,VALID,20.756,VALID,193,VALID,0,
2015-01-24, 09:05:04,VALID,920.715,VALID,0,VALID,90.2231,VALID,196.295,VALID,20.7544,VALID,193,VALID,0,
2015-01-24, 09:06:04,VALID,920.708,VALID,0,VALID,90.3451,VALID,199.303,VALID,20.8129,VALID,193,VALID,0,
2015-01-24, 09:07:04,VALID,920.703,VALID,0,VALID,90.1469,VALID,203.601,VALID,20.8519,VALID,193,VALID,0,
2015-01-24, 09:08:04,VALID,920.71,VALID,0,VALID,89.7124,VALID,210.047,VALID,20.912,VALID,190,VALID,0,
2015-01-24, 09:09:04,VALID,920.727,VALID,0,VALID,89.0644,VALID,217.676,VALID,20.8714,VALID,185,VALID,0,
2015-01-24, 09:10:04,VALID,920.771,VALID,0,VALID,88.9195,VALID,224.874,VALID,20.891,VALID,184,VALID,0,
2015-01-24, 09:11:04,VALID,920.744,VALID,0,VALID,90.2384,VALID,229.709,VALID,20.9495,VALID,234,VALID,0,
2015-01-24, 09:12:04,VALID,920.745,VALID,0,VALID,90.8483,VALID,232.825,VALID,20.891,VALID,249,VALID,0,
2015-01-24, 09:13:04,VALID,920.781,VALID,0,VALID,91.6411,VALID,233.04,VALID,20.8519,VALID,250,VALID,0,
2015-01-24, 09:14:04,VALID,920.786,VALID,0,VALID,91.6335,VALID,234.974,VALID,20.7739,VALID,250,VALID,0,
2015-01-24, 09:15:04,VALID,920.766,VALID,0,VALID,91.9231,VALID,236.908,VALID,20.7154,VALID,250,VALID,0,
2015-01-24, 09:16:04,VALID,920.762,VALID,0,VALID,92.9294,VALID,247.115,VALID,20.7154,VALID,250,VALID,0,
2015-01-24, 09:17:04,VALID,920.802,VALID,0,VALID,94.4846,VALID,254.636,VALID,20.7528,VALID,250,VALID,0,
2015-01-24, 09:18:04,VALID,920.806,VALID,0,VALID,93.6537,VALID,266.347,VALID,20.7154,VALID,250,VALID,0,
2015-01-24, 09:19:04,VALID,920.802,VALID,0,VALID,93.7147,VALID,271.826,VALID,20.7138,VALID,250,VALID,0,
2015-01-24, 09:20:04,VALID,920.786,VALID,0,VALID,93.303,VALID,272.471,VALID,20.7349,VALID,248,VALID,0,
2015-01-24, 09:21:04,VALID,920.768,VALID,0,VALID,94.0196,VALID,272.041,VALID,20.7934,VALID,248,VALID,0,
2015-01-24, 09:22:04,VALID,920.765,VALID,0,VALID,93.3792,VALID,277.628,VALID,20.7934,VALID,250,VALID,0,
2015-01-24, 09:23:04,VALID,920.777,VALID,0,VALID,92.5483,VALID,284.612,VALID,20.7528,VALID,247,VALID,0,
2015-01-24, 09:24:04,VALID,920.774,VALID,0,VALID,92.5406,VALID,292.562,VALID,20.7544,VALID,251,VALID,0,
2015-01-24, 09:25:04,VALID,920.787,VALID,0,VALID,93.1581,VALID,303.091,VALID,20.7528,VALID,250,VALID,0,
2015-01-24, 09:26:04,VALID,920.777,VALID,0,VALID,91.7554,VALID,308.034,VALID,20.7333,VALID,250,VALID,0,
2015-01-24, 09:27:04,VALID,920.781,VALID,0,VALID,91.9308,VALID,307.711,VALID,20.7723,VALID,195,VALID,0,
2015-01-24, 09:28:04,VALID,920.783,VALID,0,VALID,90.6195,VALID,309.968,VALID,20.7918,VALID,245,VALID,0,
2015-01-24, 09:29:04,VALID,920.747,VALID,0,VALID,89.5142,VALID,311.042,VALID,20.7918,VALID,249,VALID,0,
2015-01-24, 09:30:04,VALID,920.767,VALID,0,VALID,89.8267,VALID,317.381,VALID,20.8699,VALID,253,VALID,0,
2015-01-24, 09:31:04,VALID,920.792,VALID,0,VALID,88.363,VALID,323.183,VALID,20.8699,VALID,250,VALID,0,
2015-01-24, 09:32:04,VALID,920.793,VALID,0,VALID,88.6146,VALID,345.961,VALID,20.9479,VALID,250,VALID,0,
2015-01-24, 09:33:04,VALID,920.791,VALID,0,VALID,89.3541,VALID,359.606,VALID,21.0259,VALID,260,VALID,0,
2015-01-24, 09:34:04,VALID,920.764,VALID,0,VALID,89.8343,VALID,364.978,VALID,21.2015,VALID,260,VALID,0,
2015-01-24, 09:35:04,VALID,920.805,VALID,0,VALID,88.5993,VALID,383.135,VALID,21.338,VALID,262,VALID,0,
2015-01-24, 09:36:04,VALID,920.816,VALID,0,VALID,89.2931,VALID,463.179,VALID,21.4534,VALID,330,VALID,0,
2015-01-24, 09:37:04,VALID,920.824,VALID,0,VALID,88.0047,VALID,491.113,VALID,21.6323,VALID,319,VALID,0,
2015-01-24, 09:38:04,VALID,920.789,VALID,0,VALID,85.7634,VALID,554.396,VALID,21.7477,VALID,316,VALID,0,
2015-01-24, 09:39:04,VALID,920.804,VALID,0,VALID,85.4509,VALID,617.357,VALID,21.8647,VALID,320,VALID,0,
2015-01-24, 09:40:04,VALID,920.778,VALID,0,VALID,83.1105,VALID,494.552,VALID,21.9818,VALID,315,VALID,0,
2015-01-24, 09:41:04,VALID,920.816,VALID,0,VALID,82.1957,VALID,437.393,VALID,22.0403,VALID,303,VALID,0,
2015-01-24, 09:42:04,VALID,920.781,VALID,0,VALID,83.2934,VALID,418.268,VALID,22.0208,VALID,301,VALID,0.8375,
2015-01-24, 09:43:04,VALID,920.811,VALID,0,VALID,84.7266,VALID,369.275,VALID,22.0403,VALID,314,VALID,0.551172,
2015-01-24, 09:44:04,VALID,920.824,VALID,0,VALID,84.3531,VALID,333.82,VALID,22.1752,VALID,337,VALID,0.308984,
2015-01-24, 09:45:04,VALID,920.85,VALID,0,VALID,82.8589,VALID,316.307,VALID,22.3313,VALID,285,VALID,0.550391,
2015-01-24, 09:46:04,VALID,920.826,VALID,0,VALID,83.1257,VALID,309.645,VALID,22.4289,VALID,309,VALID,0.645312,
2015-01-24, 09:47:04,VALID,920.854,VALID,0,VALID,83.1486,VALID,304.166,VALID,22.5672,VALID,321,VALID,0.805078,
2015-01-24, 09:48:04,VALID,920.842,VALID,0,VALID,81.5401,VALID,298.901,VALID,22.5672,VALID,337,VALID,0.616406,
2015-01-24, 09:49:04,VALID,920.854,VALID,0,VALID,80.4118,VALID,303.951,VALID,22.6257,VALID,297,VALID,0.357031,
2015-01-24, 09:50:04,VALID,920.856,VALID,0,VALID,79.5961,VALID,310.935,VALID,22.6452,VALID,289,VALID,0.671484,
2015-01-24, 09:51:04,VALID,920.864,VALID,0,VALID,80.0992,VALID,315.662,VALID,22.5459,VALID,273,VALID,0.65,
2015-01-24, 09:52:04,VALID,920.838,VALID,0,VALID,80.7396,VALID,321.786,VALID,22.4306,VALID,274,VALID,0.544922,
2015-01-24, 09:53:04,VALID,920.842,VALID,0,VALID,79.9391,VALID,330.704,VALID,22.4306,VALID,299,VALID,0.90625,
2015-01-24, 09:54:04,VALID,920.837,VALID,0,VALID,82.1042,VALID,331.563,VALID,22.3899,VALID,307,VALID,0.719531,
2015-01-24, 09:55:04,VALID,920.832,VALID,0,VALID,82.6455,VALID,332.101,VALID,22.4484,VALID,307,VALID,0.0710938,
2015-01-24, 09:56:04,VALID,920.82,VALID,0,VALID,80.7015,VALID,328.662,VALID,22.5655,VALID,307,VALID,0.374609,
2015-01-24, 09:57:04,VALID,920.813,VALID,0,VALID,80.7091,VALID,329.2,VALID,22.624,VALID,309,VALID,0.544141,
2015-01-24, 09:58:04,VALID,920.815,VALID,0,VALID,79.8934,VALID,333.497,VALID,22.624,VALID,262,VALID,0.559375,
2015-01-24, 09:59:04,VALID,920.82,VALID,0,VALID,80.145,VALID,337.15,VALID,22.5069,VALID,264,VALID,0.673828,
2015-01-24, 10:00:04,VALID,920.804,VALID,0,VALID,80.488,VALID,342.308,VALID,22.4484,VALID,268,VALID,0.603906,
2015-01-24, 10:01:04,VALID,920.81,VALID,0,VALID,82.0813,VALID,344.564,VALID,22.4484,VALID,260,VALID,0.732422,
2015-01-24, 10:02:04,VALID,920.79,VALID,0,VALID,81.2122,VALID,343.382,VALID,22.4679,VALID,260,VALID,0.732813,
2015-01-24, 10:03:04,VALID,920.791,VALID,0,VALID,82.3024,VALID,344.564,VALID,22.4696,VALID,266,VALID,0.6375,
2015-01-24, 10:04:04,VALID,920.808,VALID,0,VALID,82.5082,VALID,353.159,VALID,22.4484,VALID,289,VALID,0.364062,
2015-01-24, 10:05:04,VALID,920.779,VALID,0,VALID,81.845,VALID,370.887,VALID,22.4874,VALID,254,VALID,0.580469,
2015-01-24, 10:06:04,VALID,920.817,VALID,0,VALID,80.9683,VALID,385.284,VALID,22.6062,VALID,286,VALID,0.650781,
2015-01-24, 10:07:04,VALID,920.768,VALID,0,VALID,82.6683,VALID,396.458,VALID,22.6843,VALID,344,VALID,0,
2015-01-24, 10:08:04,VALID,920.772,VALID,0,VALID,80.7777,VALID,398.284,VALID,22.7996,VALID,309,VALID,0,
2015-01-24, 10:09:04,VALID,920.791,VALID,0,VALID,82.6531,VALID,399.466,VALID,22.9167,VALID,299,VALID,0,
2015-01-24, 10:10:04,VALID,920.794,VALID,0,VALID,81.6163,VALID,397.747,VALID,23.016,VALID,291,VALID,0,
2015-01-24, 10:11:04,VALID,920.774,VALID,0,VALID,79.4207,VALID,384.317,VALID,22.9557,VALID,268,VALID,0,
2015-01-24, 10:12:04,VALID,920.768,VALID,0,VALID,79.3369,VALID,380.449,VALID,23.0143,VALID,285,VALID,0,
2015-01-24, 10:13:04,VALID,920.792,VALID,0,VALID,78.666,VALID,394.094,VALID,23.0338,VALID,302,VALID,0,
2015-01-24, 10:14:04,VALID,920.782,VALID,0,VALID,79.6647,VALID,402.045,VALID,23.1119,VALID,300,VALID,0,
2015-01-24, 10:15:04,VALID,920.795,VALID,0,VALID,77.7131,VALID,413.971,VALID,23.1119,VALID,303,VALID,0,
2015-01-24, 10:16:04,VALID,920.809,VALID,0,VALID,78.9938,VALID,412.789,VALID,22.9948,VALID,316,VALID,0,
2015-01-24, 10:17:04,VALID,920.792,VALID,0,VALID,79.8553,VALID,410.318,VALID,22.9753,VALID,292,VALID,0,
2015-01-24, 10:18:04,VALID,920.797,VALID,0,VALID,80.9759,VALID,407.524,VALID,22.8564,VALID,319,VALID,0.0160156,
2015-01-24, 10:19:04,VALID,920.773,VALID,0,VALID,80.2136,VALID,412.144,VALID,22.8369,VALID,291,VALID,0,
2015-01-24, 10:20:04,VALID,920.789,VALID,0,VALID,80.5338,VALID,425.037,VALID,22.9753,VALID,250,VALID,0,
2015-01-24, 10:21:04,VALID,920.798,VALID,0,VALID,80.0001,VALID,432.666,VALID,22.9735,VALID,231,VALID,0.00273437,
2015-01-24, 10:22:04,VALID,920.769,VALID,0,VALID,80.3127,VALID,468.229,VALID,23.0143,VALID,245,VALID,0,
2015-01-24, 10:23:04,VALID,920.748,VALID,0,VALID,80.4728,VALID,512.602,VALID,23.1119,VALID,261,VALID,0,
2015-01-24, 10:24:04,VALID,920.757,VALID,0,VALID,80.3889,VALID,623.696,VALID,23.2272,VALID,247,VALID,0,
2015-01-24, 10:25:04,VALID,920.707,VALID,0,VALID,76.8745,VALID,583.728,VALID,23.4809,VALID,209,VALID,0,
2015-01-24, 10:26:04,VALID,920.687,VALID,0,VALID,78.0866,VALID,641.746,VALID,23.7542,VALID,324,VALID,0,
2015-01-24, 10:27:04,VALID,920.678,VALID,0,VALID,75.6243,VALID,667.102,VALID,23.8517,VALID,295,VALID,0.285937,
2015-01-24, 10:28:04,VALID,920.673,VALID,0,VALID,76.2113,VALID,723.831,VALID,23.8908,VALID,302,VALID,0,
2015-01-24, 10:29:04,VALID,920.69,VALID,0,VALID,74.5418,VALID,836.752,VALID,24.0665,VALID,301,VALID,0,
2015-01-24, 10:30:04,VALID,920.659,VALID,0,VALID,76.501,VALID,560.306,VALID,24.1445,VALID,299,VALID,0.00976563,
2015-01-24, 10:31:04,VALID,920.671,VALID,0,VALID,75.1059,VALID,775.51,VALID,24.0274,VALID,269,VALID,0.0792969,
2015-01-24, 10:32:04,VALID,920.689,VALID,0,VALID,75.2431,VALID,602.315,VALID,23.8304,VALID,293,VALID,0,
2015-01-24, 10:33:04,VALID,920.662,VALID,0,VALID,75.8911,VALID,396.136,VALID,23.6761,VALID,284,VALID,0,
2015-01-24, 10:34:04,VALID,920.667,VALID,0,VALID,76.5772,VALID,355.845,VALID,23.6548,VALID,292,VALID,0,
2015-01-24, 10:35:04,VALID,920.64,VALID,0,VALID,76.0969,VALID,318.67,VALID,23.7542,VALID,168,VALID,0,
2015-01-24, 10:36:04,VALID,920.645,VALID,0,VALID,74.5799,VALID,287.62,VALID,23.9103,VALID,65,VALID,0.123828,
2015-01-24, 10:37:04,VALID,920.631,VALID,0,VALID,73.848,VALID,269.248,VALID,24.0079,VALID,32,VALID,0,
2015-01-24, 10:38:04,VALID,920.641,VALID,0,VALID,73.0933,VALID,260.437,VALID,24.1055,VALID,33,VALID,0,
2015-01-24, 10:39:04,VALID,920.611,VALID,0,VALID,74.3207,VALID,239.701,VALID,24.1055,VALID,33,VALID,0,
2015-01-24, 10:40:04,VALID,920.608,VALID,0,VALID,72.7198,VALID,229.494,VALID,24.125,VALID,33,VALID,0,
2015-01-24, 10:41:04,VALID,920.581,VALID,0,VALID,73.2687,VALID,216.709,VALID,23.9866,VALID,33,VALID,0,
2015-01-24, 10:42:04,VALID,920.595,VALID,0,VALID,74.3664,VALID,197.047,VALID,24.0256,VALID,33,VALID,0,
2015-01-24, 10:43:04,VALID,920.595,VALID,0,VALID,74.2826,VALID,187.27,VALID,24.1445,VALID,32,VALID,0,
2015-01-24, 10:44:04,VALID,920.583,VALID,0,VALID,73.1543,VALID,182.65,VALID,24.1055,VALID,32,VALID,0,
2015-01-24, 10:45:04,VALID,920.588,VALID,0,VALID,73.7489,VALID,179.427,VALID,24.0469,VALID,32,VALID,0,
2015-01-24, 10:46:04,VALID,920.583,VALID,0,VALID,74.3664,VALID,175.989,VALID,24.1055,VALID,32,VALID,0,
2015-01-24, 10:47:04,VALID,920.583,VALID,0,VALID,74.0386,VALID,174.592,VALID,24.1817,VALID,32,VALID,0,
2015-01-24, 10:48:04,VALID,920.55,VALID,0,VALID,74.496,VALID,174.914,VALID,24.1055,VALID,73,VALID,0,
2015-01-24, 10:49:04,VALID,920.531,VALID,0,VALID,74.9534,VALID,175.237,VALID,24.0842,VALID,73,VALID,0,
2015-01-24, 10:50:04,VALID,920.529,VALID,0,VALID,75.3117,VALID,179.104,VALID,24.0469,VALID,73,VALID,0,
2015-01-24, 10:51:04,VALID,920.542,VALID,0,VALID,76.2875,VALID,181.253,VALID,23.9493,VALID,73,VALID,0,
2015-01-24, 10:52:04,VALID,920.513,VALID,0,VALID,77.0117,VALID,184.906,VALID,23.8713,VALID,73,VALID,0,
2015-01-24, 10:53:04,VALID,920.46,VALID,0,VALID,77.2938,VALID,189.311,VALID,23.8304,VALID,73,VALID,0,
2015-01-24, 10:54:04,VALID,920.457,VALID,0,VALID,76.501,VALID,195.221,VALID,23.8694,VALID,73,VALID,0,
2015-01-24, 10:55:04,VALID,920.426,VALID,0,VALID,76.4934,VALID,199.196,VALID,24.0079,VALID,69,VALID,0,
2015-01-24, 10:56:04,VALID,920.428,VALID,0,VALID,77.0727,VALID,204.783,VALID,24.0665,VALID,68,VALID,0,
2015-01-24, 10:57:04,VALID,920.398,VALID,0,VALID,76.6992,VALID,214.345,VALID,24.1055,VALID,64,VALID,0,
2015-01-24, 10:58:04,VALID,920.377,VALID,0,VALID,77.4387,VALID,220.469,VALID,24.125,VALID,48,VALID,0,
2015-01-24, 10:59:04,VALID,920.368,VALID,0,VALID,75.2126,VALID,230.032,VALID,24.0469,VALID,353,VALID,0,
2015-01-24, 11:00:04,VALID,920.353,VALID,0,VALID,74.5723,VALID,238.949,VALID,23.8908,VALID,5,VALID,0,
2015-01-24, 11:01:04,VALID,920.377,VALID,0,VALID,76.501,VALID,248.082,VALID,23.7737,VALID,8,VALID,0,
2015-01-24, 11:02:04,VALID,920.313,VALID,0,VALID,77.5759,VALID,261.297,VALID,23.7151,VALID,8,VALID,0,
2015-01-24, 11:03:04,VALID,920.321,VALID,0,VALID,78.5059,VALID,278.165,VALID,23.6584,VALID,17,VALID,0.769141,
2015-01-24, 11:04:04,VALID,920.333,VALID,0,VALID,79.84,VALID,291.703,VALID,23.598,VALID,30,VALID,0.790234,
2015-01-24, 11:05:04,VALID,920.328,VALID,0,VALID,78.7804,VALID,300.083,VALID,23.6175,VALID,28,VALID,0,
2015-01-24, 11:06:04,VALID,920.324,VALID,0,VALID,77.4615,VALID,303.521,VALID,23.6566,VALID,29,VALID,0,
2015-01-24, 11:07:04,VALID,920.323,VALID,0,VALID,77.7055,VALID,301.265,VALID,23.6956,VALID,21,VALID,0,
2015-01-24, 11:08:04,VALID,920.284,VALID,0,VALID,77.1642,VALID,308.249,VALID,23.7151,VALID,20,VALID,0,
2015-01-24, 11:09:04,VALID,920.278,VALID,0,VALID,78.8566,VALID,308.678,VALID,23.637,VALID,48,VALID,0,
2015-01-24, 11:10:04,VALID,920.285,VALID,0,VALID,78.9176,VALID,299.761,VALID,23.6956,VALID,44,VALID,0,
2015-01-24, 11:11:04,VALID,920.264,VALID,0,VALID,77.2786,VALID,301.695,VALID,23.7542,VALID,34,VALID,0,
2015-01-24, 11:12:04,VALID,920.251,VALID,0,VALID,77.3929,VALID,302.339,VALID,23.637,VALID,38,VALID,2.11172,
2015-01-24, 11:13:04,VALID,920.254,VALID,0,VALID,78.445,VALID,317.489,VALID,23.4419,VALID,31,VALID,0.0132813,
2015-01-24, 11:14:04,VALID,920.21,VALID,0,VALID,80.3279,VALID,354.878,VALID,23.3053,VALID,44,VALID,0.0902344,
2015-01-24, 11:15:04,VALID,920.206,VALID,0,VALID,80.2822,VALID,395.383,VALID,23.2467,VALID,50,VALID,0.541016,
2015-01-24, 11:16:04,VALID,920.214,VALID,0,VALID,81.662,VALID,411.5,VALID,23.3053,VALID,4,VALID,0.483594,
2015-01-24, 11:17:04,VALID,920.21,VALID,0,VALID,79.1387,VALID,412.574,VALID,23.3638,VALID,350,VALID,0,
2015-01-24, 11:18:04,VALID,920.202,VALID,0,VALID,79.5199,VALID,475.749,VALID,23.4028,VALID,7,VALID,0.0597656,
2015-01-24, 11:19:04,VALID,920.182,VALID,0,VALID,79.3293,VALID,369.49,VALID,23.5199,VALID,53,VALID,0.429688,
2015-01-24, 11:20:04,VALID,920.156,VALID,0,VALID,80.9531,VALID,347.142,VALID,23.598,VALID,35,VALID,2.31289,
2015-01-24, 11:21:04,VALID,920.198,VALID,0,VALID,79.6266,VALID,321.356,VALID,23.7364,VALID,45,VALID,0,
2015-01-24, 11:22:04,VALID,920.206,VALID,0,VALID,79.314,VALID,299.331,VALID,23.7932,VALID,12,VALID,0.505078,
2015-01-24, 11:23:04,VALID,920.193,VALID,0,VALID,78.14,VALID,283.86,VALID,23.7169,VALID,14,VALID,1.24766,
2015-01-24, 11:24:04,VALID,920.192,VALID,0,VALID,79.314,VALID,268.603,VALID,23.559,VALID,14,VALID,0.182031,
2015-01-24, 11:25:04,VALID,920.205,VALID,0,VALID,77.8198,VALID,254.206,VALID,23.4791,VALID,353,VALID,1.71289,
2015-01-24, 11:26:04,VALID,920.183,VALID,0,VALID,77.6064,VALID,242.28,VALID,23.362,VALID,350,VALID,0,
2015-01-24, 11:27:04,VALID,920.164,VALID,0,VALID,79.3293,VALID,234.222,VALID,23.3425,VALID,353,VALID,0,
2015-01-24, 11:28:04,VALID,920.143,VALID,0,VALID,78.7575,VALID,227.775,VALID,23.4028,VALID,331,VALID,0,
2015-01-24, 11:29:04,VALID,920.131,VALID,0,VALID,78.6737,VALID,220.147,VALID,23.4011,VALID,22,VALID,0,
2015-01-24, 11:30:04,VALID,920.119,VALID,0,VALID,79.4741,VALID,213.056,VALID,23.4419,VALID,4,VALID,0,
2015-01-24, 11:31:04,VALID,920.098,VALID,0,VALID,79.8553,VALID,206.502,VALID,23.4224,VALID,31,VALID,0.655469,
2015-01-24, 11:32:04,VALID,920.099,VALID,0,VALID,80.9607,VALID,200.7,VALID,23.4028,VALID,355,VALID,0.880469,
2015-01-24, 11:33:04,VALID,920.045,VALID,0,VALID,81.5401,VALID,196.08,VALID,23.4011,VALID,34,VALID,0.525781,
2015-01-24, 11:34:04,VALID,920.058,VALID,0,VALID,80.7777,VALID,191.997,VALID,23.3833,VALID,10,VALID,1.53008,
2015-01-24, 11:35:04,VALID,920.033,VALID,0,VALID,79.8705,VALID,187.485,VALID,23.2449,VALID,19,VALID,0.982813,
2015-01-24, 11:36:04,VALID,920.014,VALID,0,VALID,80.0764,VALID,182.65,VALID,23.1687,VALID,23,VALID,1.41953,
2015-01-24, 11:37:04,VALID,919.975,VALID,0,VALID,79.8705,VALID,178.137,VALID,23.0906,VALID,28,VALID,0,
2015-01-24, 11:38:04,VALID,919.992,VALID,0,VALID,81.8831,VALID,172.98,VALID,23.0711,VALID,22,VALID,1.05977,
2015-01-24, 11:39:04,VALID,919.977,VALID,0,VALID,84.0329,VALID,167.178,VALID,23.0906,VALID,17,VALID,0,